Showing default

SES 20, 53960

Orbit data source: Space-Track

SES 20, 53960 is a payload satellite owned by SES (LU) in GEO that was launched on Tue, 04 Oct 2022 UTC via an ATLAS V 531 launch vehicle from the Air Force Eastern Test Range (AFETR). Payload-class satellites include a variety of spacecraft equipped with specific instruments for various scientific and technological missions. These include communications satellites like Starlink; space stations such as the ISS; scientific satellites like the Hubble; Earth observation satellites from companies like Planet Labs, Umbra, and HawkEye 360; GPS; miniature CubeSats for education and research; and military/defense satellites.

Loading next visibility...
Identifier
53960, 2022-123A
Orbit
GEO
Country
Flag of LULU / SES
Related business
Manufacturer
Boeing/ES
Mission
Operational Commercial Communications
Bus & Motor
BSS-702SP, R-4D
Mass
1,499 kg wet, ~1,369 kg dry
Launch date (UTC)
2022-10-04 (3 years ago)
Launch vehicle
ATLAS V 531
Launch site
Air Force Eastern Test Range (AFETR)
Object type
Payload
Rocket body
Debris
Shape & HBR
Box + 2 Pan, 15.0 m
Radar Cross Section
48.465 m², Large (>1 m²)

Expand to show TLE details & history
Last TLE update: 9 hours ago

TLE from 9 hours ago
0 SES 20
1 53960U 22123A   26063.02530826 -.00000114  00000-0  00000+0 0  9992
2 53960   0.0167 105.8069 0001428 319.3827   2.5712  1.00270678 12478
Epoch: 2026-03-04T00:36Z
TLE epoch observation values (Epoch: 2026-03-04T00:36:26.633Z)
Latitude
-0.0302°
Longitude
-103.11168°
Altitude
35,780.417 km
Speed
3.075 km/s
True Right ascension
04h 31m 10s
True Declination
0° 01' 49"
Sunlit
Object was in daylight at epoch
Visualization orbit readout
Latitude
Unknown
Longitude
Unknown
Altitude
Unknown
Speed
Unknown
Apparent Right ascension
Unknown
Apparent Declination
Unknown
Sunlit
N/A
Visualization observer readout
Local Sidereal Time
13:09:30
Azimuth
Unknown
Elevation
Unknown
Doppler factor
Unknown
Orbital elements
Apogee altitude
35,793.997 km
Perigee altitude
35,781.954 km
Semi-major axis
42,166.113 km
Eccentricity
0.00014
Inclination
0.0167°
RAAN
105.8069°
Arg. of periapsis
319.3827°
True anomaly
2.57193°
Mean anomaly
2.5712°
Eccentric anomaly
2.57157°
Mean motion
0.25067 °/min
Orbital period
1,436.17 mins
BSTAR
0
Loading maneuver chart data...
Computing Atmospheric mass density...
Loading historical data...
Loading historical data...
Loading historical data...
Loading historical data...
Loading historical data...
Loading historical data...
Loading historical data...
Other satellites on launch #123 in the year 2022 (2022-10-04 UTC)

Documentation

Showing up to 5 results
|